Location: Lombard
(41.8800°N, 88.0080°W)
Time: 12:13:38
(UTC-06:00)

Transit 4A - Pass Details

Date: 08 December 2023
Orbit: 870 x 973 km, 66.8° (Epoch: 02 March)

Event Time Altitude Azimuth Distance (km) Brightness Sun altitude
Rises 06:02:53 0° 309° (NW) 3,559 - -11.6°
Reaches altitude 10° 06:07:26 10° 278° (W) 2,582 - -10.8°
Exits shadow 06:08:18 11° 269° (W) 2,503 9.6 -10.6°
Maximum altitude 06:09:13 11° 260° (W) 2,469 9.6 -10.5°
Drops below altitude 10° 06:11:00 10° 242° (WSW) 2,557 9.8 -10.2°
Sets 06:15:28 0° 210° (SSW) 3,468 10.8 -9.4°
